Weather History for Wisconsin Rapids, WI

Change the Weather History Date:

Sunday, February 3, 2013

  Actual Average Record
Temperature  
Mean Temperature 8 °F -  
Max Temperature 15 °F 24 °F 47 °F (1991)
Min Temperature 1 °F 4 °F -21 °F (1970)
Degree Days  
Heating Degree Days 57    
Moisture  
Dew Point 0 °F    
Average Humidity 70    
Maximum Humidity 85    
Minimum Humidity 54    
Precipitation  
Precipitation 0.00 in - - ()
Sea Level Pressure  
Sea Level Pressure 30.01 in    
Wind  
Wind Speed 5 mph (WNW)    
Max Wind Speed 16 mph    
Max Gust Speed 24 mph    
Visibility 9 miles    
Events Snow    
Averages and records for this station are not official NWS values.
T = Trace of Precipitation, MM = Missing Value Source: NWS Daily Summary

Daily Weather History Graph

Daily Weather History Graph

Search for Another Location

Airport:

Trip Planner

Search our weather history database for the weather conditions in past years. The results will help you decide how hot, cold, wet, or windy it might be!

Date:

Astronomy

Feb. 03, 2013 Rise Set
Actual Time 7:14 AM CST 5:12 PM CST
Civil Twilight 6:44 AM CST 5:42 PM CST
Nautical Twilight 6:09 AM CST 6:17 PM CST
Astronomical Twilight 5:35 AM CST 6:51 PM CST
Moon 12:43 AM CST (2/3) 10:47 AM CST (2/3)
Length of Visible Light 10h 58m
Length of Day
9h 57m
Waning Gibbous, 48% of the Moon is Illuminated
Feb 3
Waning Gibbous
Feb 10
New
Feb 17
First Quarter
Feb 25
Full
Mar 4
Last Quarter

Hourly Weather History & Observations

Time (CST) Temp. Windchill Dew Point Humidity Pressure Visibility Wind Dir Wind Speed Gust Speed Precip Events Conditions
12:04 AM 1.4 °F - -2.2 °F 85% 29.96 in 6.0 mi Calm Calm - 0.00 in   Overcast
12:54 AM 1.0 °F - -4.0 °F 79% 30.02 in 9.0 mi Calm Calm - 0.00 in   Overcast
1:54 AM 1.9 °F - -2.0 °F 83% 30.01 in 4.0 mi Calm Calm - 0.00 in Snow Light Snow
2:54 AM 3.9 °F - -0.0 °F 84% 29.98 in 5.0 mi Calm Calm - 0.00 in Snow Light Snow
3:54 AM 5.0 °F -5.6 °F 1.0 °F 84% 29.98 in 8.0 mi WSW 5.8 mph - 0.00 in   Overcast
4:54 AM 6.1 °F -4.3 °F 1.0 °F 80% 29.97 in 7.0 mi WSW 5.8 mph - 0.00 in   Overcast
5:16 AM 6.8 °F -2.0 °F 1.4 °F 79% 29.90 in 6.0 mi WSW 4.6 mph - 0.00 in Snow Light Snow
5:38 AM 6.8 °F -3.5 °F 1.4 °F 79% 29.91 in 5.0 mi West 5.8 mph - 0.00 in Snow Light Snow
5:54 AM 7.0 °F -5.7 °F 1.9 °F 80% 29.98 in 7.0 mi West 8.1 mph - 0.00 in   Overcast
6:54 AM 8.1 °F -4.3 °F 3.0 °F 80% 29.99 in 5.0 mi WNW 8.1 mph - 0.00 in Snow Light Snow
7:54 AM 7.0 °F -7.5 °F 1.0 °F 77% 30.02 in 10.0 mi WNW 10.4 mph - 0.00 in   Mostly Cloudy
8:54 AM 7.0 °F -9.1 °F -0.0 °F 73% 30.03 in 10.0 mi WNW 12.7 mph - N/A   Mostly Cloudy
9:20 AM 8.6 °F -8.3 °F -0.4 °F 67% 29.95 in 10.0 mi WNW 15.0 mph 24.2 mph N/A   Scattered Clouds
9:52 AM 8.6 °F -8.3 °F -0.4 °F 67% 29.97 in 10.0 mi WNW 15.0 mph - N/A   Mostly Cloudy
9:54 AM 9.0 °F -8.5 °F -0.0 °F 67% 30.04 in 10.0 mi WNW 16.1 mph 23.0 mph N/A   Mostly Cloudy
10:40 AM 10.4 °F -6.6 °F -0.4 °F 62% 29.97 in 10.0 mi NW 16.1 mph 21.9 mph N/A   Scattered Clouds
10:54 AM 10.0 °F -5.2 °F 1.0 °F 67% 30.04 in 10.0 mi WNW 12.7 mph - N/A   Clear
11:54 AM 12.0 °F -3.4 °F 1.0 °F 61% 30.03 in 10.0 mi NW 13.8 mph - N/A   Partly Cloudy
12:54 PM 14.0 °F -0.2 °F -0.0 °F 54% 30.02 in 10.0 mi WNW 12.7 mph 23.0 mph N/A   Clear
1:54 PM 15.1 °F 1.8 °F 1.0 °F 54% 30.02 in 10.0 mi NW 11.5 mph - N/A   Scattered Clouds
2:54 PM 15.1 °F 1.8 °F 1.9 °F 56% 30.02 in 10.0 mi NW 11.5 mph - N/A   Clear
3:54 PM 15.1 °F 3.3 °F 1.0 °F 54% 30.02 in 10.0 mi WNW 9.2 mph - N/A   Partly Cloudy
4:54 PM 12.9 °F 0.7 °F -0.0 °F 56% 30.02 in 10.0 mi WNW 9.2 mph - N/A   Clear
5:54 PM 12.0 °F 5.9 °F -0.0 °F 59% 30.03 in 10.0 mi WSW 3.5 mph - N/A   Overcast
6:54 PM 12.0 °F 5.9 °F 1.9 °F 64% 30.04 in 10.0 mi WNW 3.5 mph - N/A   Overcast
7:54 PM 12.0 °F 4.1 °F 1.0 °F 61% 30.05 in 10.0 mi WNW 4.6 mph - N/A   Overcast
8:54 PM 8.1 °F - -0.9 °F 67% 30.06 in 10.0 mi Calm Calm - N/A   Partly Cloudy
9:54 PM 8.1 °F - 1.9 °F 76% 30.06 in 10.0 mi Calm Calm - N/A   Overcast
10:54 PM 9.0 °F - 1.9 °F 73% 30.05 in 10.0 mi Calm Calm - N/A   Overcast
11:54 PM 10.0 °F - 1.9 °F 70% 30.05 in 9.0 mi Calm Calm - N/A   Overcast